CW4198 Nisa PT current weather conditions

sailwx.info

Wind from 076

Air temperature 2.8° C
Dewpoint 2.2° C

Last reported at 2018-Jan-24 08:47 UTC.
Time now 2018-Jan-24 09:53 UTC

Location: N 39°31' W 007°39'.
View on Google Maps.

See reports from other nearby stations

  
Tides and Currents Weather Stations Pressure Air Temp Water Temp Dewpoint Dewpoint Depression Visibility Wind Speed Wind Dir Waves Ship Positions
date/time (UTC)wind fromknots sea level pressurealtimeterstation pressurevisibilityair tempwater tempwave heightnotes
2018-Jan-24 08:47 076 2.8
2018-Jan-24 08:27 077 2 gusting 2 2.8
2018-Jan-24 08:07 057 2.8
2018-Jan-24 07:47 062 2.8
2018-Jan-24 07:37 070 2.8
2018-Jan-24 07:27 070 3.3
2018-Jan-24 07:07 065 3.3
2018-Jan-24 06:37 075 3.3
2018-Jan-24 06:27 068 3.3
2018-Jan-24 06:07 068 3.9
2018-Jan-24 05:47 074 3.3
2018-Jan-24 05:37 074 3.9
2018-Jan-24 05:27 071 3.3
2018-Jan-24 05:17 072 3.3
2018-Jan-24 04:37 072 3.3
2018-Jan-24 04:07 072 3.9
2018-Jan-24 03:57 072 3.9
2018-Jan-24 03:37 067 4.4
2018-Jan-24 03:27 069 4.4
2018-Jan-24 03:17 060 4.4
2018-Jan-24 03:07 075 2 gusting 2 4.4
2018-Jan-24 02:47 082 2 gusting 3 4.4
2018-Jan-24 02:27 070 3 gusting 3 4.4
2018-Jan-24 02:17 051 4.4
2018-Jan-24 01:57 058 5.0
2018-Jan-24 01:47 063 2 gusting 3 5.0
2018-Jan-24 01:37 068 5.0
2018-Jan-24 01:27 058 5.0
2018-Jan-24 01:07 064 1 gusting 3 5.0
2018-Jan-24 00:57 057 1 gusting 4 5.6
2018-Jan-24 00:47 051 2 gusting 2 5.6
2018-Jan-24 00:27 074 2 gusting 2 5.6
2018-Jan-24 00:17 062 6.1
2018-Jan-24 00:07 049 6.1
2018-Jan-23 23:47 093 5.6
2018-Jan-23 23:37 093 5.6
2018-Jan-23 23:27 093 5.0
2018-Jan-23 23:17 093 5.0
2018-Jan-23 22:57 093 5.0
2018-Jan-23 22:27 093 5.6
2018-Jan-23 22:07 093 5.6
2018-Jan-23 21:57 093 5.6
2018-Jan-23 21:47 093 6.1
2018-Jan-23 21:37 093 6.1
2018-Jan-23 21:27 093 6.1
2018-Jan-23 21:07 093 6.7
2018-Jan-23 20:57 093 6.7
2018-Jan-23 20:47 093 6.7
2018-Jan-23 20:37 093 7.2
2018-Jan-23 20:27 093 7.2
2018-Jan-23 20:17 093 7.2
2018-Jan-23 20:07 093 7.8
2018-Jan-23 19:57 093 7.8
2018-Jan-23 19:07 093 8.9
2018-Jan-23 18:47 093 9.4
2018-Jan-23 18:37 093 10.0
2018-Jan-23 18:27 093 10.6
2018-Jan-23 18:07 093 11.1
2018-Jan-23 17:27 091 13.3
2018-Jan-23 17:17 090 13.3
2018-Jan-23 16:57 090 13.3
2018-Jan-23 16:27 091 13.9
2018-Jan-23 16:07 067 13.9
2018-Jan-23 15:27 090 2 gusting 4 13.9
2018-Jan-23 15:07 079 4 gusting 5 13.3
2018-Jan-23 14:47 092 4 gusting 4 13.3
2018-Jan-23 14:17 059 2 gusting 4 12.8
2018-Jan-23 13:57 099 2 gusting 6 11.7
2018-Jan-23 13:47 072 4 gusting 4 11.1
2018-Jan-23 13:27 050 10.0
2018-Jan-23 13:17 057 9.4
2018-Jan-23 13:07 058 9.4
2018-Jan-23 12:57 089 1 gusting 2 8.9
2018-Jan-23 12:47 061 8.3
2018-Jan-23 12:37 060 8.3
2018-Jan-23 12:27 037 7.8
2018-Jan-23 12:07 033 2 gusting 4 7.8
2018-Jan-23 11:57 032 2 gusting 4 7.2
2018-Jan-23 11:47 023 7.2
2018-Jan-23 11:17 030 6.1
2018-Jan-23 10:57 027 5.6
2018-Jan-23 10:47 015 5.6
2018-Jan-23 09:47 065 4 gusting 4 3.9
2018-Jan-23 09:37 056 2 gusting 4 3.9
2018-Jan-23 09:27 049 3.9
2018-Jan-23 08:47 052 2.8
2018-Jan-23 08:37 051 2.8
2018-Jan-23 08:27 252 2.8
2018-Jan-23 08:07 247 2.8
2018-Jan-23 07:37 246 2.2
2018-Jan-23 07:17 246 2.2
2018-Jan-23 06:47 247 2.2
2018-Jan-23 06:17 247 2.8
2018-Jan-23 05:57 247 2.8
2018-Jan-23 05:37 247 3.3
2018-Jan-23 04:47 246 3.9
2018-Jan-23 04:37 246 3.9
2018-Jan-23 04:27 247 3.9
2018-Jan-23 04:17 246 3.9
2018-Jan-23 04:07 247 3.9
2018-Jan-23 03:57 247 3.9
2018-Jan-23 03:47 246 3.9
2018-Jan-23 03:37 247 4.4
2018-Jan-23 03:17 246 5.0
2018-Jan-23 03:07 247 5.6
2018-Jan-23 02:57 246 5.6
2018-Jan-23 02:47 246 6.1
2018-Jan-23 02:37 246 6.7
2018-Jan-23 02:17 247 6.7
2018-Jan-23 02:07 247 6.1
2018-Jan-23 01:47 246 5.6
2018-Jan-23 01:37 246 5.0
2018-Jan-23 01:07 246 5.6
2018-Jan-23 00:37 246 5.6
2018-Jan-23 00:27 246 5.6
2018-Jan-23 00:17 246 6.1
2018-Jan-23 00:07 246 6.1
2018-Jan-22 23:37 246 6.7
2018-Jan-22 23:17 246 6.7
2018-Jan-22 23:07 246 7.2
2018-Jan-22 22:57 246 7.2
2018-Jan-22 22:27 246 7.2
2018-Jan-22 21:57 246 7.8
2018-Jan-22 21:37 246 8.3
2018-Jan-22 21:27 246 8.3
2018-Jan-22 20:47 246 9.4
2018-Jan-22 20:37 246 9.4
2018-Jan-22 20:27 246 9.4
2018-Jan-22 20:17 246 10.0
2018-Jan-22 19:47 246 10.6
2018-Jan-22 19:37 246 11.1
2018-Jan-22 19:27 239 11.1
2018-Jan-22 18:37 246 12.8
2018-Jan-22 18:27 222 2 gusting 2 12.8
2018-Jan-22 17:57 244 13.9
2018-Jan-22 17:47 242 1 gusting 4 14.4
2018-Jan-22 17:37 249 14.4
2018-Jan-22 17:27 254 15.0
2018-Jan-22 17:17 276 15.6
2018-Jan-22 16:47 258 16.1
2018-Jan-22 16:37 263 16.7
2018-Jan-22 16:27 235 16.7
2018-Jan-22 16:17 271 2 gusting 4 16.7
2018-Jan-22 15:47 247 3 gusting 4 17.2
2018-Jan-22 15:27 245 17.2
2018-Jan-22 15:07 246 3 gusting 4 16.7
2018-Jan-22 14:47 322 16.7
2018-Jan-22 14:37 245 16.7
2018-Jan-22 14:17 341 16.1
2018-Jan-22 13:57 302 16.1
2018-Jan-22 13:47 287 15.6
2018-Jan-22 13:37 15.0
2018-Jan-22 13:17 346 14.4
2018-Jan-22 11:47 037 12.8
2018-Jan-22 11:27 087 12.8
2018-Jan-22 10:47 089 12.2
2018-Jan-22 10:37 308 12.2
2018-Jan-22 10:17 308 11.1
2018-Jan-22 10:07 308 10.0
2018-Jan-22 09:57 271 10.0
2018-Jan-22 09:37 247 9.4
2018-Jan-22 09:17 249 7.2